| time (UTC) | temp F | wind direction | speed knots | gust knots | rain 1hr in | rain 24hr in | rain mn in | humidity % | barometer mb |
| 20260508111542 | 36 | 90 | 0.0 | 0.0 | 0.00 | 0.00 | 0.00 | 99 | 1016.2 |
| 20260508110922 | 35 | 90 | 0.0 | 0.0 | 0.00 | 0.00 | 0.00 | 99 | 1016.2 |
| 20260508110326 | 35 | 90 | 0.0 | 0.0 | 0.00 | 0.00 | 0.00 | 99 | 1016.2 |
| 20260508105142 | 35 | 90 | 0.0 | 0.0 | 0.00 | 0.00 | 0.00 | 99 | 1016.2 |
| 20260508103936 | 34 | 90 | 0.0 | 0.0 | 0.00 | 0.00 | 0.00 | 99 | 1016.2 |
| 20260508103338 | 34 | 90 | 0.0 | 0.0 | 0.00 | 0.00 | 0.00 | 99 | 1016.2 |
| 20260508102715 | 34 | 90 | 0.0 | 0.0 | 0.00 | 0.00 | 0.00 | 99 | 1015.9 |
| 20260508102115 | 34 | 89 | 0.0 | 0.0 | 0.00 | 0.00 | 0.00 | 99 | 1015.9 |
| 20260508101512 | 35 | 89 | 0.0 | 0.0 | 0.00 | 0.00 | 0.00 | 99 | 1015.9 |
| 20260508100938 | 35 | 89 | 0.0 | 0.0 | 0.00 | 0.00 | 0.00 | 99 | 1015.9 |
| 20260508100331 | 35 | 89 | 0.0 | 0.0 | 0.00 | 0.00 | 0.00 | 99 | 1015.9 |
| 20260508095748 | 35 | 89 | 0.0 | 0.0 | 0.00 | 0.00 | 0.00 | 99 | 1015.9 |
| 20260508095130 | 35 | 88 | 0.0 | 0.0 | 0.00 | 0.00 | 0.00 | 99 | 1015.9 |
| 20260508094522 | 35 | 88 | 0.0 | 0.0 | 0.00 | 0.00 | 0.00 | 99 | 1015.9 |
| 20260508093943 | 35 | 88 | 0.0 | 0.0 | 0.00 | 0.00 | 0.00 | 99 | 1015.9 |
| 20260508092722 | 35 | 88 | 0.0 | 0.0 | 0.00 | 0.00 | 0.00 | 99 | 1015.5 |
| 20260508092142 | 35 | 88 | 0.0 | 0.0 | 0.00 | 0.00 | 0.00 | 99 | 1015.5 |
| 20260508091528 | 35 | 89 | 0.0 | 0.0 | 0.00 | 0.00 | 0.00 | 99 | 1015.5 |
| 20260508090932 | 35 | 89 | 0.0 | 0.0 | 0.00 | 0.00 | 0.00 | 99 | 1015.5 |
| 20260508085139 | 36 | 89 | 0.0 | 0.0 | 0.00 | 0.00 | 0.00 | 99 | 1015.5 |
| 20260508084547 | 36 | 87 | 0.0 | 0.0 | 0.00 | 0.00 | 0.00 | 99 | 1015.5 |
| 20260508083912 | 35 | 87 | 0.0 | 0.0 | 0.00 | 0.00 | 0.00 | 99 | 1015.5 |
| 20260508083313 | 36 | 87 | 0.0 | 0.0 | 0.00 | 0.00 | 0.00 | 99 | 1015.5 |
| 20260508082735 | 36 | 87 | 0.0 | 0.0 | 0.00 | 0.00 | 0.00 | 99 | 1015.5 |
| 20260508082150 | 36 | 87 | 0.0 | 0.0 | 0.00 | 0.00 | 0.00 | 99 | 1015.5 |
| 20260508081537 | 36 | 87 | 0.0 | 0.0 | 0.00 | 0.00 | 0.00 | 99 | 1015.5 |
| 20260508080328 | 36 | 88 | 0.0 | 0.0 | 0.00 | 0.00 | 0.00 | 98 | 1015.5 |
| 20260508075731 | 36 | 89 | 0.0 | 0.0 | 0.00 | 0.00 | 0.00 | 99 | 1015.5 |
| 20260508075120 | 36 | 88 | 0.0 | 0.0 | 0.00 | 0.00 | 0.00 | 99 | 1015.5 |
| 20260508074529 | 35 | 88 | 0.0 | 0.0 | 0.00 | 0.00 | 0.00 | 99 | 1015.5 |
| 20260508073327 | 35 | 88 | 0.0 | 0.0 | 0.00 | 0.00 | 0.00 | 98 | 1015.5 |
| 20260508072732 | 36 | 88 | 0.0 | 0.0 | 0.00 | 0.00 | 0.00 | 98 | 1015.2 |
| 20260508072115 | 36 | 87 | 0.0 | 0.0 | 0.00 | 0.00 | 0.00 | 98 | 1015.5 |
| 20260508071537 | 36 | 87 | 0.0 | 0.0 | 0.00 | 0.00 | 0.00 | 97 | 1015.5 |
| 20260508070950 | 36 | 88 | 0.0 | 0.0 | 0.00 | 0.00 | 0.00 | 98 | 1015.5 |
| 20260508070338 | 36 | 88 | 0.0 | 0.0 | 0.00 | 0.00 | 0.00 | 97 | 1015.2 |
| 20260508065738 | 36 | 88 | 0.0 | 0.0 | 0.00 | 0.00 | 0.00 | 97 | 1015.5 |
| 20260508065133 | 36 | 88 | 0.0 | 0.0 | 0.00 | 0.00 | 0.00 | 96 | 1015.5 |
| 20260508064520 | 37 | 88 | 0.0 | 0.0 | 0.00 | 0.00 | 0.00 | 96 | 1015.5 |
| 20260508063925 | 37 | 88 | 0.0 | 0.0 | 0.00 | 0.00 | 0.00 | 96 | 1015.9 |
| 20260508063318 | 37 | 88 | 0.0 | 0.0 | 0.00 | 0.00 | 0.00 | 95 | 1015.5 |
| 20260508062742 | 37 | 87 | 0.0 | 0.0 | 0.00 | 0.00 | 0.00 | 95 | 1015.5 |
| 20260508062146 | 37 | 87 | 0.0 | 0.0 | 0.00 | 0.00 | 0.00 | 94 | 1015.5 |
| 20260508061530 | 37 | 87 | 0.0 | 0.0 | 0.00 | 0.00 | 0.00 | 94 | 1015.5 |
| 20260508060909 | 37 | 87 | 0.0 | 0.0 | 0.00 | 0.00 | 0.00 | 95 | 1015.5 |
| 20260508060341 | 36 | 87 | 0.0 | 0.0 | 0.00 | 0.00 | 0.00 | 95 | 1015.5 |
| 20260508055751 | 36 | 87 | 0.0 | 0.0 | 0.00 | 0.00 | 0.00 | 95 | 1015.5 |
| 20260508055141 | 36 | 87 | 0.0 | 0.0 | 0.00 | 0.00 | 0.00 | 94 | 1015.9 |
| 20260508054544 | 37 | 87 | 0.0 | 0.0 | 0.00 | 0.00 | 0.00 | 93 | 1015.5 |
| 20260508052737 | 38 | 86 | 0.0 | 0.0 | 0.00 | 0.00 | 0.00 | 91 | 1015.9 |
| 20260508052132 | 38 | 90 | 0.0 | 0.0 | 0.00 | 0.00 | 0.00 | 92 | 1015.9 |
| 20260508051526 | 38 | 90 | 0.0 | 0.0 | 0.00 | 0.00 | 0.00 | 90 | 1015.9 |
| 20260508050945 | 39 | 87 | 0.0 | 0.0 | 0.00 | 0.00 | 0.00 | 89 | 1015.5 |
| 20260508050309 | 38 | 86 | 0.0 | 0.0 | 0.00 | 0.00 | 0.00 | 92 | 1015.9 |
| 20260508045724 | 37 | 87 | 0.0 | 0.0 | 0.00 | 0.00 | 0.00 | 92 | 1015.9 |
| 20260508045127 | 38 | 87 | 0.0 | 0.0 | 0.00 | 0.00 | 0.00 | 90 | 1015.9 |
| 20260508044542 | 38 | 87 | 0.0 | 0.0 | 0.00 | 0.00 | 0.00 | 90 | 1015.9 |
| 20260508043936 | 37 | 87 | 0.0 | 0.0 | 0.00 | 0.00 | 0.00 | 93 | 1015.9 |
| 20260508043347 | 38 | 86 | 0.0 | 0.0 | 0.00 | 0.00 | 0.00 | 91 | 1015.9 |
| 20260508042723 | 38 | 86 | 0.0 | 0.0 | 0.00 | 0.00 | 0.00 | 91 | 1015.9 |
| 20260508042141 | 38 | 86 | 0.0 | 0.0 | 0.00 | 0.00 | 0.00 | 90 | 1015.9 |
| 20260508041532 | 38 | 86 | 0.0 | 0.0 | 0.00 | 0.00 | 0.00 | 88 | 1015.9 |
| 20260508040318 | 39 | 87 | 0.0 | 0.0 | 0.00 | 0.00 | 0.00 | 86 | 1015.9 |
| 20260508035120 | 40 | 85 | 0.0 | 0.0 | 0.00 | 0.00 | 0.00 | 86 | 1015.9 |
| 20260508034526 | 40 | 88 | 0.0 | 0.0 | 0.00 | 0.00 | 0.00 | 85 | 1015.9 |
| 20260508033916 | 40 | 89 | 0.0 | 0.0 | 0.00 | 0.00 | 0.00 | 86 | 1015.9 |
| 20260508033321 | 40 | 90 | 0.0 | 0.0 | 0.00 | 0.00 | 0.00 | 84 | 1015.5 |
| 20260508032734 | 39 | 90 | 0.0 | 0.0 | 0.00 | 0.00 | 0.00 | 86 | 1015.5 |
| 20260508032146 | 40 | 90 | 0.0 | 0.0 | 0.00 | 0.00 | 0.00 | 85 | 1015.5 |
| 20260508031526 | 40 | 91 | 0.0 | 0.0 | 0.00 | 0.00 | 0.00 | 84 | 1015.5 |
| 20260508030931 | 41 | 91 | 0.0 | 0.0 | 0.00 | 0.00 | 0.00 | 85 | 1015.5 |
| 20260508030311 | 41 | 83 | 0.0 | 0.0 | 0.00 | 0.00 | 0.00 | 82 | 1015.5 |
| 20260508025719 | 41 | 83 | 0.0 | 0.0 | 0.00 | 0.00 | 0.00 | 85 | 1015.9 |
| 20260508025114 | 41 | 83 | 0.0 | 0.0 | 0.00 | 0.00 | 0.00 | 83 | 1015.5 |
| 20260508024525 | 41 | 83 | 0.0 | 0.0 | 0.00 | 0.00 | 0.00 | 82 | 1015.9 |
| 20260508023946 | 41 | 83 | 0.0 | 0.0 | 0.00 | 0.00 | 0.00 | 84 | 1015.5 |
| 20260508023341 | 41 | 83 | 0.0 | 0.0 | 0.00 | 0.00 | 0.00 | 83 | 1015.5 |
| 20260508022723 | 42 | 83 | 0.0 | 0.0 | 0.00 | 0.00 | 0.00 | 80 | 1015.5 |
| 20260508021515 | 42 | 83 | 0.0 | 0.0 | 0.00 | 0.00 | 0.00 | 77 | 1015.5 |
| 20260508020945 | 42 | 83 | 0.0 | 0.0 | 0.00 | 0.00 | 0.00 | 79 | 1015.5 |
| 20260508020349 | 42 | 82 | 0.0 | 0.0 | 0.00 | 0.00 | 0.00 | 75 | 1015.5 |
| 20260508015738 | 43 | 83 | 0.0 | 0.0 | 0.00 | 0.00 | 0.00 | 76 | 1015.5 |
| 20260508015145 | 44 | 82 | 0.0 | 0.0 | 0.00 | 0.00 | 0.00 | 76 | 1015.5 |
| 20260508014517 | 44 | 116 | 0.0 | 0.0 | 0.00 | 0.00 | 0.00 | 77 | 1015.2 |
| 20260508012725 | 44 | 83 | 0.0 | 0.0 | 0.00 | 0.00 | 0.00 | 74 | 1015.2 |
| 20260508011528 | 45 | 83 | 0.0 | 0.0 | 0.00 | 0.00 | 0.00 | 71 | 1014.9 |
| 20260508010935 | 46 | 84 | 0.0 | 0.0 | 0.00 | 0.00 | 0.00 | 71 | 1014.9 |
| 20260508010349 | 46 | 83 | 0.0 | 0.0 | 0.00 | 0.00 | 0.00 | 67 | 1014.9 |
| 20260508005736 | 47 | 84 | 0.0 | 0.0 | 0.00 | 0.00 | 0.00 | 64 | 1014.9 |
| 20260508003908 | 50 | 83 | 0.0 | 0.0 | 0.00 | 0.00 | 0.00 | 59 | 1014.5 |
| 20260508003340 | 51 | 76 | 0.0 | 0.0 | 0.00 | 0.00 | 0.00 | 58 | 1014.5 |
| 20260508002734 | 51 | 90 | 0.0 | 0.0 | 0.00 | 0.00 | 0.00 | 56 | 1014.2 |
| 20260508002110 | 52 | 86 | 0.0 | 0.0 | 0.00 | 0.00 | 0.00 | 52 | 1014.5 |
| 20260508001532 | 53 | 91 | 0.0 | 0.0 | 0.00 | 0.00 | 0.00 | 49 | 1014.5 |
| 20260508000949 | 54 | 87 | 0.0 | 0.0 | 0.00 | 0.00 | 0.00 | 49 | 1014.5 |
| 20260508000335 | 55 | 91 | 0.0 | 0.0 | 0.00 | 0.00 | 0.00 | 49 | 1014.2 |
| 20260507235747 | 55 | 69 | 0.0 | 0.0 | 0.00 | 0.00 | 0.00 | 45 | 1014.2 |
| 20260507235119 | 56 | 97 | 0.0 | 0.0 | 0.00 | 0.00 | 0.00 | 43 | 1014.2 |
| 20260507234551 | 56 | 4 | 2.6 | 3.5 | 0.00 | 0.00 | 0.00 | 43 | 1013.8 |
| 20260507233938 | 57 | 58 | 0.9 | 0.9 | 0.00 | 0.00 | 0.00 | 42 | 1013.8 |
| 20260507233347 | 57 | 80 | 1.7 | 2.6 | 0.00 | 0.00 | 0.00 | 41 | 1013.8 |
| 20260507231535 | 58 | 68 | 1.7 | 2.6 | 0.00 | 0.00 | 0.00 | 37 | 1013.8 |
| 20260507225744 | 60 | 54 | 0.0 | 0.9 | 0.00 | 0.00 | 0.00 | 39 | 1013.8 |
| 20260507225120 | 60 | 102 | 0.9 | 0.9 | 0.00 | 0.00 | 0.00 | 37 | 1013.8 |
| 20260507224527 | 60 | 69 | 0.0 | 0.9 | 0.00 | 0.00 | 0.00 | 37 | 1013.8 |
| 20260507223918 | 60 | 292 | 1.7 | 1.7 | 0.00 | 0.00 | 0.00 | 36 | 1013.8 |
| 20260507223338 | 61 | 241 | 2.6 | 2.6 | 0.00 | 0.00 | 0.00 | 34 | 1013.8 |
| 20260507222719 | 61 | 76 | 0.9 | 1.7 | 0.00 | 0.00 | 0.00 | 34 | 1013.8 |
| 20260507221516 | 62 | 237 | 0.9 | 1.7 | 0.00 | 0.00 | 0.00 | 31 | 1013.5 |
| 20260507220312 | 61 | 206 | 2.6 | 2.6 | 0.00 | 0.00 | 0.00 | 32 | 1013.5 |
| 20260507215738 | 62 | 286 | 2.6 | 2.6 | 0.00 | 0.00 | 0.00 | 32 | 1013.2 |
| 20260507215144 | 63 | 203 | 0.9 | 2.6 | 0.00 | 0.00 | 0.00 | 33 | 1013.2 |
| 20260507213944 | 62 | 5 | 3.5 | 8.7 | 0.00 | 0.00 | 0.00 | 34 | 1013.2 |
| 20260507212737 | 62 | 49 | 4.3 | 6.1 | 0.00 | 0.00 | 0.00 | 33 | 1013.2 |
| 20260507211532 | 63 | 175 | 3.5 | 5.2 | 0.00 | 0.00 | 0.00 | 33 | 1012.8 |
| 20260507210928 | 63 | 152 | 2.6 | 2.6 | 0.00 | 0.00 | 0.00 | 33 | 1012.8 |
| 20260507210344 | 63 | 13 | 0.9 | 0.9 | 0.00 | 0.00 | 0.00 | 33 | 1012.8 |
| 20260507204547 | 63 | 266 | 2.6 | 2.6 | 0.00 | 0.00 | 0.00 | 35 | 1012.8 |
| 20260507202737 | 63 | 1 | 1.7 | 1.7 | 0.00 | 0.00 | 0.00 | 35 | 1012.5 |
| 20260507202152 | 63 | 47 | 0.9 | 0.9 | 0.00 | 0.00 | 0.00 | 34 | 1012.5 |
| 20260507201538 | 64 | 281 | 3.5 | 3.5 | 0.00 | 0.00 | 0.00 | 35 | 1012.8 |
| 20260507200938 | 65 | 193 | 3.5 | 6.1 | 0.00 | 0.00 | 0.00 | 32 | 1012.8 |
| 20260507195752 | 64 | 195 | 2.6 | 2.6 | 0.00 | 0.00 | 0.00 | 39 | 1012.8 |
| 20260507195151 | 64 | 94 | 0.9 | 1.7 | 0.00 | 0.00 | 0.00 | 34 | 1012.8 |
| 20260507194514 | 64 | 51 | 1.7 | 3.5 | 0.00 | 0.00 | 0.00 | 33 | 1012.8 |
| 20260507193951 | 63 | 56 | 0.9 | 1.7 | 0.00 | 0.00 | 0.00 | 38 | 1013.2 |
| 20260507192732 | 64 | 242 | 4.3 | 7.0 | 0.00 | 0.00 | 0.00 | 34 | 1013.2 |
| 20260507192146 | 64 | 228 | 4.3 | 5.2 | 0.00 | 0.00 | 0.00 | 35 | 1013.2 |
| 20260507191535 | 63 | 53 | 1.7 | 1.7 | 0.00 | 0.00 | 0.00 | 37 | 1013.2 |
| 20260507190936 | 63 | 222 | 5.2 | 7.0 | 0.00 | 0.00 | 0.00 | 39 | 1013.5 |
| 20260507185724 | 64 | 113 | 0.9 | 0.9 | 0.00 | 0.00 | 0.00 | 39 | 1013.5 |
| 20260507185150 | 64 | 95 | 1.7 | 2.6 | 0.00 | 0.00 | 0.00 | 36 | 1013.5 |
| 20260507184548 | 62 | 323 | 0.9 | 2.6 | 0.00 | 0.00 | 0.00 | 42 | 1013.5 |
| 20260507183951 | 62 | 353 | 3.5 | 7.0 | 0.00 | 0.00 | 0.00 | 43 | 1013.5 |
| 20260507183308 | 62 | 237 | 3.5 | 3.5 | 0.00 | 0.00 | 0.00 | 38 | 1013.2 |
| 20260507182714 | 62 | 39 | 0.9 | 0.9 | 0.00 | 0.00 | 0.00 | 41 | 1013.5 |
| 20260507182150 | 63 | 257 | 7.8 | 9.6 | 0.00 | 0.00 | 0.00 | 36 | 1013.5 |
| 20260507181510 | 63 | 69 | 0.9 | 0.9 | 0.00 | 0.00 | 0.00 | 39 | 1013.5 |
| 20260507180927 | 64 | 127 | 0.9 | 1.7 | 0.00 | 0.00 | 0.00 | 39 | 1013.2 |
| 20260507180324 | 62 | 69 | 1.7 | 2.6 | 0.00 | 0.00 | 0.00 | 42 | 1013.2 |
| 20260507174520 | 61 | 247 | 3.5 | 5.2 | 0.00 | 0.00 | 0.00 | 41 | 1013.5 |
| 20260507173945 | 62 | 344 | 4.3 | 7.8 | 0.00 | 0.00 | 0.00 | 37 | 1013.5 |
| 20260507172732 | 62 | 298 | 3.5 | 5.2 | 0.00 | 0.00 | 0.00 | 39 | 1013.8 |
| 20260507172129 | 62 | 180 | 3.5 | 3.5 | 0.00 | 0.00 | 0.00 | 40 | 1013.8 |
| 20260507170911 | 61 | 293 | 2.6 | 3.5 | 0.00 | 0.00 | 0.00 | 47 | 1013.8 |
| 20260507170321 | 62 | 66 | 0.9 | 0.9 | 0.00 | 0.00 | 0.00 | 40 | 1013.8 |
| 20260507165750 | 61 | 297 | 2.6 | 2.6 | 0.00 | 0.00 | 0.00 | 41 | 1013.8 |
| 20260507165135 | 60 | 171 | 0.9 | 0.9 | 0.00 | 0.00 | 0.00 | 46 | 1013.8 |
| 20260507163923 | 60 | 156 | 1.7 | 2.6 | 0.00 | 0.00 | 0.00 | 44 | 1014.2 |
| 20260507162722 | 60 | 78 | 0.0 | 0.0 | 0.00 | 0.00 | 0.00 | 43 | 1014.5 |
| 20260507162152 | 61 | 243 | 1.7 | 1.7 | 0.00 | 0.00 | 0.00 | 43 | 1014.2 |
| 20260507161555 | 62 | 275 | 1.7 | 2.6 | 0.00 | 0.00 | 0.00 | 38 | 1014.5 |
| 20260507160923 | 61 | 75 | 0.0 | 0.0 | 0.00 | 0.00 | 0.00 | 43 | 1014.5 |
| 20260507160346 | 60 | 80 | 0.9 | 0.9 | 0.00 | 0.00 | 0.00 | 47 | 1014.5 |
| 20260507155731 | 60 | 79 | 0.0 | 0.0 | 0.00 | 0.00 | 0.00 | 48 | 1014.5 |
| 20260507155123 | 60 | 186 | 3.5 | 5.2 | 0.00 | 0.00 | 0.00 | 42 | 1014.5 |
| 20260507154519 | 60 | 28 | 3.5 | 6.1 | 0.00 | 0.00 | 0.00 | 42 | 1014.5 |
| 20260507153911 | 59 | 210 | 5.2 | 7.8 | 0.00 | 0.00 | 0.00 | 44 | 1014.5 |
| 20260507153315 | 59 | 82 | 0.9 | 1.7 | 0.00 | 0.00 | 0.00 | 46 | 1014.5 |
| 20260507152750 | 59 | 338 | 0.9 | 1.7 | 0.00 | 0.00 | 0.00 | 46 | 1014.5 |
| 20260507151534 | 59 | 314 | 1.7 | 2.6 | 0.00 | 0.00 | 0.00 | 46 | 1014.5 |
| 20260507150347 | 59 | 102 | 1.7 | 1.7 | 0.00 | 0.00 | 0.00 | 45 | 1014.5 |
| 20260507145715 | 57 | 236 | 1.7 | 2.6 | 0.00 | 0.00 | 0.00 | 49 | 1014.5 |
| 20260507145111 | 56 | 55 | 1.7 | 3.5 | 0.00 | 0.00 | 0.00 | 51 | 1014.5 |
| 20260507144515 | 59 | 226 | 2.6 | 2.6 | 0.00 | 0.00 | 0.00 | 44 | 1014.9 |
| 20260507143939 | 57 | 46 | 0.0 | 0.9 | 0.00 | 0.00 | 0.00 | 52 | 1014.5 |
| 20260507143320 | 58 | 198 | 4.3 | 6.1 | 0.00 | 0.00 | 0.00 | 49 | 1014.9 |
| 20260507142123 | 56 | 90 | 0.0 | 0.0 | 0.00 | 0.00 | 0.00 | 54 | 1014.9 |
| 20260507141517 | 55 | 37 | 1.7 | 1.7 | 0.00 | 0.00 | 0.00 | 53 | 1014.9 |
| 20260507140926 | 57 | 61 | 0.0 | 0.0 | 0.00 | 0.00 | 0.00 | 56 | 1015.2 |
| 20260507140342 | 56 | 139 | 0.9 | 0.9 | 0.00 | 0.00 | 0.00 | 55 | 1014.9 |
| 20260507135143 | 56 | 93 | 0.9 | 0.9 | 0.00 | 0.00 | 0.00 | 58 | 1015.2 |
| 20260507134519 | 55 | 194 | 1.7 | 2.6 | 0.00 | 0.00 | 0.00 | 53 | 1015.2 |
| 20260507133319 | 56 | 246 | 1.7 | 2.6 | 0.00 | 0.00 | 0.00 | 58 | 1015.5 |
| 20260507132742 | 55 | 87 | 0.9 | 0.9 | 0.00 | 0.00 | 0.00 | 64 | 1015.5 |
| 20260507132122 | 54 | 181 | 1.7 | 1.7 | 0.00 | 0.00 | 0.00 | 66 | 1015.5 |
| 20260507130911 | 54 | 280 | 3.5 | 5.2 | 0.00 | 0.00 | 0.00 | 67 | 1015.5 |
| 20260507130311 | 53 | 81 | 0.0 | 0.0 | 0.00 | 0.00 | 0.00 | 70 | 1015.5 |
| 20260507124550 | 51 | 88 | 0.0 | 0.0 | 0.00 | 0.00 | 0.00 | 78 | 1015.5 |
| 20260507123942 | 49 | 79 | 0.0 | 0.0 | 0.00 | 0.00 | 0.00 | 79 | 1015.5 |
| 20260507123343 | 48 | 101 | 0.0 | 0.0 | 0.00 | 0.00 | 0.00 | 84 | 1015.5 |
| 20260507122748 | 46 | 116 | 0.0 | 0.0 | 0.00 | 0.00 | 0.00 | 91 | 1015.5 |
| 20260507122127 | 46 | 88 | 0.0 | 0.0 | 0.00 | 0.00 | 0.00 | 99 | 1015.5 |
| 20260507120340 | 43 | 87 | 0.0 | 0.0 | 0.00 | 0.00 | 0.00 | 99 | 1015.2 |
| 20260507115712 | 43 | 87 | 0.0 | 0.0 | 0.00 | 0.00 | 0.00 | 99 | 1015.5 |
| 20260507115146 | 42 | 87 | 0.0 | 0.0 | 0.00 | 0.00 | 0.00 | 99 | 1015.2 |
| 20260507114527 | 41 | 87 | 0.0 | 0.0 | 0.00 | 0.00 | 0.00 | 99 | 1015.2 |
| 20260507113916 | 41 | 87 | 0.0 | 0.0 | 0.00 | 0.00 | 0.00 | 99 | 1015.2 |
| 20260507113326 | 40 | 88 | 0.0 | 0.0 | 0.00 | 0.00 | 0.00 | 99 | 1015.2 |
| 20260507112752 | 39 | 88 | 0.0 | 0.0 | 0.00 | 0.00 | 0.00 | 99 | 1015.2 |